カタログに戻る

FENGYUN 1C DEB

運用中PO
NORAD 30232·DEBRIS·🇨🇳 China

打ち上げ May 10, 1999 から Taiyuan Satellite Launch Center

Loading…

次のパス (今後24時間)

TLE

最新Source: Space-Track

元期: Sep 14, 2026, 01:55 UTC

1 30232U 99025WR  26257.08053628  .00001752  00000-0  29484-3 0  9994
2 30232  98.6685 117.5130 0130616 215.2203 299.8389 14.65560384 37790

AllMySatでFENGYUN 1C DEBをリアルタイム追跡

Download on the App Store